Location: Borotín
(49.5055°N, 14.6142°E)
Time: 11:31:09
(UTC+00:00)

NOSS 3-4 (C) - Pass Details

Date: 27 May 2022
Orbit: 847 x 1365 km, 63.4° (Epoch: 14 June)

Event Time Altitude Azimuth Distance (km) Brightness Sun altitude
Rises 02:17:23 0° 316° (NW) 3,734 6.6 -6.6°
Reaches altitude 10° 02:19:52 10° 319° (NW) 2,849 6.0 -6.4°
Maximum altitude 02:26:41 73° 44° (NE) 1,193 4.2 -5.5°
Drops below altitude 10° 02:34:24 10° 129° (SE) 3,217 6.3 -4.6°
Sets 02:37:22 0° 132° (SE) 4,244 6.9 -4.2°
